User: anonymous   Login
Location: Azul
(36.7830°S, 59.8500°W)
Time: 06:33:18
(UTC-03:00)
Language:

CUTE 1.7 + AOD 2 - Orbit

View from above orbital plane
View from above orbital plane
View from above satellite
View from above satellite

Ground track
Ground track

The orbit data is extracted from the following two-line orbital elements,

1 32785U 08021C   24259.89209196  .00013451  00000-0  11258-2 0  9995
2 32785  97.7625 224.6000 0011447  31.7208 328.4702 14.98527170889123
Epoch (UTC): 15 September 2024 21:24:36
Eccentricity: 0.0011447
inclination: 97.7625°
perigee height: 563 km
apogee height: 579 km
right ascension of ascending node: 224.6000°
argument of perigee: 31.7208°
revolutions per day: 14.98527170
mean anomaly at epoch: 328.4702°
orbit number at epoch: 88912

The dashed part of the orbit path shows where the satellite is in the earth's shadow,  

DLR